Regional Weather Roundup
Issued by NWS Grand Forks, ND

Home | Current Version | Previous Version | Text Only | Print | Product List | Glossary Off
Versions: 1 2 3 4 5 6 7 8 9 10 11 12 13 14 15 16 17 18 19 20 21 22 23 24 25 26 27 28 29 30 31 32 33 34 35 36 37 38 39 40 41 42 43 44 45 46 47 48 49 50

000
ASUS43 KFGF 272331
RWRFGF
PRAIRIE TO PINES  WEATHER ROUNDUP
NATIONAL WEATHER SERVICE EASTERN NORTH DAKOTA/GRAND FORKS ND
600 PM CDT THU APR 27 2017

 **SATELLITE DATA USED TO AUGMENT SKY COVER AT AUTOMATED STATIONS**
 *****  WEATHER ACROSS EASTERN NORTH DAKOTA  *****

CITY           SKY/WX    TMP DP  RH WIND       PRES   REMARKS
GRAND FORKS    CLOUDY    46  33  60 N15       29.66R
GRAND FRKS AFB CLOUDY    45  31  59 NE18G28   29.67R
DEVILS LAKE    FAIR      47  28  47 N20G25    29.71R
FARGO          CLOUDY    40  30  67 N6        29.68R
WAHPETON ARPT  CLOUDY    37  28  70 N9        29.70R
$$

 ***** WEATHER ACROSS CENTRAL AND WESTERN NORTH DAKOTA  *****

CITY           SKY/WX    TMP DP  RH WIND       PRES   REMARKS
BISMARCK       FAIR      53  26  35 N5        29.71S
MINOT          FAIR      52  19  27 NE13      29.74R
JAMESTOWN      FAIR      50  31  48 N17       29.67R
MINOT AFB      FAIR      51  21  30 N13       29.73R
GARRISON         N/A     50  16  25 VRB7      29.72S
WILLISTON      FAIR      54  17  23 SE9       29.74R
DICKINSON      FAIR      49  21  33 VRB6      29.68R
HETTINGER      FAIR      50  25  37 E13       29.69R
$$

 *****  OTHER AIRPORT OBSERVATIONS IN OUR AREA  *****

CITY           SKY/WX    TMP DP  RH WIND       PRES   REMARKS
WALHALLA       NOT AVBL
GRAFTON AIRPOR MOCLDY    43  32  65 N21G28    29.70R
VALLEY CITY AR CLOUDY    46  30  53 N16G22    29.70R
CANDO          NOT AVBL
CAVALIER APRT  MOCLDY    45  28  53 N23G32    29.69R
GWINNER        CLOUDY    45  34  65 MISG      29.69R
SHEYENNE NWR     N/A     45  31  57 N9        29.95S
ROLLA          FAIR      45  27  49 NE18G24   29.74R
 ***** THE ABOVE OBSERVATIONS ARE NON NWS ARE NOT QUALITY
       CONTROLLED AND MAY MIS-REPORT RAIN FOR SNOW...
$$

  *****  WEATHER ACROSS NORTHERN MINNESOTA  *****

CITY           SKY/WX    TMP DP  RH WIND       PRES   REMARKS
FLAG ISLAND    CLOUDY    28  25  86 N15       29.63S WCI  17
WARROAD        FAIR      30  23  74 N13G18    29.65S WCI  20
ROSEAU         LGT SNOW  34  27  75 N7        29.66R
HALLOCK        CLOUDY    39  32  75 N8        29.68R
THF RVR FALLS  CLOUDY    32  25  74 N10       29.68R WCI  24
BAUDETTE       CLOUDY    28  21  75 N12       29.61R WCI  18
WASKISH        CLOUDY    28  21  74 N10       29.62R WCI  19
CROOKSTON      CLOUDY    36  28  75 NE7       29.69R
STEPHEN NDAWN    N/A     36  28  75 E8          N/A
GREENBUSH NDAW   N/A     34  28  80 NW3         N/A
$$
  *****  WEATHER ACROSS CENTRAL AND WEST MINNESOTA  *****

CITY           SKY/WX    TMP DP  RH WIND       PRES   REMARKS
FOSSTON        CLOUDY    28  23  80 NW10      29.66S WCI  19
BEMIDJI        CLOUDY    28  23  80 NW12      29.62R WCI  18
PARK RAPIDS    CLOUDY    31  20  63 NW14      29.63R WCI  21
ELBOW LAKE     CLOUDY    34  26  72 NW17      29.70R WCI  23
WADENA         CLOUDY    30  25  80 NW9       29.65R WCI  22
DETROIT LAKES  CLOUDY    32  28  86 N12       29.67R WCI  23
MOORHEAD       CLOUDY    37  28  70 N7        29.70R
FERGUS FALLS   CLOUDY    36  27  69 N10       29.69S
MORRIS MN      CLOUDY    36  27  69 N18G24    29.70R
STAPLES        CLOUDY    28  23  80 NW10      29.65R WCI  19
$$
  *****  WEATHER ELSEWHERE ACROSS MINNESOTA  *****

CITY           SKY/WX    TMP DP  RH WIND       PRES   REMARKS
DULUTH         CLOUDY    29  20  69 NW14      29.55R WCI  18
INTRNTL FALLS  CLOUDY    28  20  71 NW16      29.57R WCI  16
ELY            CLOUDY    27  18  69 NW8       29.52R WCI  18
CLOQUET        CLOUDY    28  19  69 W13       29.57S WCI  18
WHEATON        CLOUDY    37  27  65 NW8       29.73R
BRAINERD       CLOUDY    30  23  75 NW7       29.63R WCI  23
HIBBING        CLOUDY    27  19  72 NW17      29.56R WCI  14
ALEXANDRIA     CLOUDY    32  23  69 NW16      29.67R WCI  21
SAINT CLOUD    CLOUDY    32  24  72 NW13      29.65R WCI  22
MINNEAPOLIS    CLOUDY    34  23  64 NW15      29.66R WCI  24
$$

  *****  WEATHER ACROSS SOUTH DAKOTA  *****

CITY           SKY/WX    TMP DP  RH WIND       PRES   REMARKS
SIOUX FALLS    FAIR      51  34  52 N12       29.68R
BROOKINGS      FAIR      44  27  51 NW15G22   29.68R
WATERTOWN      FAIR      41  27  57 N17       29.69R
HURON          FAIR      49  28  44 N9        29.70R
SISSETON         N/A     42  31  64 NE14      29.70R
ABERDEEN       FAIR      50  29  44 N10       29.70S
MITCHELL       FAIR      52  31  44 NE8       29.70S
PIERRE         FAIR      52  30  43 E6        29.67R
MOBRIDGE       FAIR      55  24  30 N10       29.66R
RAPID CITY     PTSUNNY   47  33  58 E10       29.64R
$$

  *****  SOME WEATHER IN NEARBY STATES *****

CITY           SKY/WX    TMP DP  RH WIND       PRES   REMARKS
GLASGOW MT     PTSUNNY   53  23  31 E10       29.69R
GREAT FALLS MT CLOUDY    42  37  82 N14       29.75R
CHEYENNE WY    FAIR      45  33  63 CALM      29.52F
SCOTTSBLUFF NE LGT RAIN  44  40  85 N8        29.55F FOG
OMAHA NE       PTSUNNY   58  32  37 W6        29.70R
DES MOINES IA  PTSUNNY   57  35  43 NW9       29.70R
DAVENPORT IA   CLOUDY    45  37  73 W14       29.74R
CHICAGO IL     CLOUDY    46  36  68 SW16G25   29.72R
EAU CLAIRE WI  CLOUDY    34  26  72 W10       29.63R
LA CROSSE WI   CLOUDY    41  31  67 W14       29.66R
$$

  *****  SOME NATIONAL WEATHER *****

CITY           SKY/WX    TMP DP  RH WIND       PRES   REMARKS
LA GUARDIA NY  CLOUDY    63  57  81 SE12G20   29.88S HAZE
RALEIGH NC     CLOUDY    76  59  55 SW9       29.87S
ATLANTA GA     PTSUNNY   78  69  73 S8        29.82R
NEW ORLEANS LA FAIR      80  61  52 NE6       29.77F
OKLAHOMA CITY  PTSUNNY   65  48  54 SE16      29.60R
ALBUQUERQUE NM PTSUNNY   69  33  26 N14G25    29.57S
SALT LAKE CITY PTSUNNY   50  27  40 NW18      29.82S
LOS ANGELES CA PTSUNNY   67  54  63 W15       29.75F
BOISE ID       FAIR      50  25  37 NW18G28   29.92F
SEATTLE WA     PTSUNNY   52  39  61 W12       30.09R
$$

*** WEATHER ACROSS MANITOBA...SASKATCHEWAN AND ONTARIO ***
                ***ONTARIO***

CITY           SKY/WX    TMP DP  RH WIND       PRES   REMARKS
GERALDTON      LGT SNOW  30  28  93 N8        29.27F VSB 1   WCI  23
THUNDER BAY    LGT SNOW  25  21  86 W14G20    29.45R WCI  13
SIOUX LOOKOUT  LGT SNOW  25  21  86 N7        29.53S DRFTSNOWWCI  17
TORONTO        TSTM      64  61  88 W8        29.58S
BIG TROUT LK   CLOUDY    28   3  34 NE17G28   29.79R WCI  16
PICKLE LAKE    SNOW      23  21  93 N12G20    29.51F VSB 1/2 WCI  12
DRYDEN         PTSUNNY   25  19  80 NE9       29.55S WCI  15
KENORA         FLURRIES  27  19  74 N16G23    29.61R WCI  14
$$
                *** MANITOBA***

CITY           SKY/WX    TMP DP  RH WIND       PRES   REMARKS
BRANDON        MOSUNNY   48  27  43 NE20G26   29.78R
DAUPHIN        SUNNY     48  14  25 NE16      29.84S
ISLAND LAKE    PTSUNNY   39   7  26 N12G21    29.88F
PILOT MOUND      N/A     45  25  45 N20G25      N/A
THE PAS        MOSUNNY   45   9  23 N8        29.93S
THOMPSON       PTSUNNY   41   5  22 NE9       29.98S
WINNIPEG       PTSUNNY   37  27  65 NE25G38   29.74R
LYNN LAKE      SUNNY     43   9  24 E5        29.97S
CHURCHILL      MOSUNNY   34  14  44 S10       30.08F
GILLAM         PTSUNNY   36   5  27 NE6       30.02F
$$
                ***SASKATCHEWAN***

CITY           SKY/WX    TMP DP  RH WIND       PRES   REMARKS
ESTEVAN        MOSUNNY   50  10  20 SE3       29.76S
KINDERSLEY     CLOUDY    37  34  87 NE8       29.77R
LLOYDMINSTER   FLURRIES  34  32  93 E9        29.83R
PRINCE ALBERT  PTSUNNY   48  10  21 E8        29.87S
REGINA         PTSUNNY   52  12  20 NE12      29.79R
YORKTON        SUNNY     52   3  14 NE9       29.81S
N. BATTLEFORD  CLOUDY    45  28  53 E13       29.84S
LA RONGE       MOSUNNY   48   7  18 NE12      29.92S
SASKATOON      CLOUDY    48  18  29 SE13      29.84R
SWIFT CURRENT  CLOUDY    45  34  65 S14       29.73R
$$
NOTE: THESE ARE AUTOMATED STATIONS WITH LIMITED QUALITY CONTROL
      "FAIR" INDICATES FEW OR NO CLOUDS BELOW 12,000 FEET WITH NO
      SIGNIFICANT WEATHER AND/OR OBSTRUCTIONS TO VISIBILITY.
      SKY/WX - SKY CONDITION AND SIGNIFICANT WEATHER.
      TMP - AIR TEMPERATURE.    DP   - DEWPOINT TEMPERATURE.
      RH  - RELATIVE HUMIDITY.  PRES - PRESSURE.
      HX  - HEAT INDEX.         WCI  - WIND CHILL INDEX.
$




USA.gov is the U.S. government's official web portal to all federal, state and local government web resources and services.